Dewpoint
48 48 48 48 47 45 42 39 37 36 35 37 37 38 39 39 40 40 40 41 40 41 42 42 42 42 42 42 41 39 39 40 37 38 37 37 38 38 38 38 38 39 39
48 48 48 48 46 43 40 38 37 36 35 36 37 37 38 38 38 39 38 38 38 39 39 39 40 41 40 41 40 39 38 38 37 36 36 37 37 37 37 36 36 37 36
48 48 47 46 43 41 39 37 36 36 36 36 36 36 35 36 35 35 35 35 35 36 36 36 37 37 37 38 38 38 38 38 38 37 36 36 36 36 35 36 35 36 35
47 47 45 43 41 39 37 36 36 36 35 34 34 33 34 34 34 34 34 34 36 36 37 37 37 36 36 36 37 37 37 37 37 35 34 33 34 34 35 35 31 33 32
45 44 43 40 38 36 36 36 35 34 33 33 32 33 34 35 35 35 35 35 36 36 37 36 36 37 38 38 36 36 36 36 36 35 33 33 33 33 34 34 32 32 29
42 41 39 37 36 35 35 35 34 33 32 32 33 33 35 37 38 37 36 35 35 35 35 36 37 39 40 40 39 39 37 33 33 33 33 33 32 32 33 32 31 29 25
40 38 37 36 35 35 35 34 33 32 32 32 32 34 36 38 39 38 37 36 35 35 36 36 36 37 36 35 34 36 35 39 37 36 29 28 29 30 32 31 30 29 28
38 36 36 35 34 34 33 33 32 32 32 32 32 34 37 38 39 38 38 36 35 35 36 35 34 33 31 32 31 30 28 28 31 29 29 30 31 31 33 32 31 30 30
36 35 35 35 34 33 33 32 33 32 32 32 33 34 35 36 39 36 36 36 35 35 36 33 30 32 33 33 30 28 27 26 28 28 30 31 32 34 30 30 27 27 26
34 34 34 34 33 33 33 32 33 32 32 32 31 33 34 34 38 34 33 33 34 34 31 30 30 30 32 33 29 28 23 25 27 27 27 27 27 27 29 29 29 27 27
33 33 34 34 33 33 33 32 31 31 30 29 28 29 30 29 35 34 33 29 28 29 28 28 27 30 30 32 33 31 27 29 30 30 29 28 27 26 27 28 29 28 27
33 33 33 33 33 33 32 31 30 29 28 27 25 24 25 26 30 34 33 30 28 26 27 27 28 32 31 31 32 33 32 32 32 30 28 26 25 26 27 28 29 29 30
32 32 32 32 32 31 30 29 27 27 26 24 24 23 22 23 26 31 32 33 31 26 27 26 26 33 31 31 32 32 32 31 30 26 24 24 26 27 28 28 28 28 28
31 31 31 31 29 29 28 28 27 26 25 24 23 21 21 21 23 30 30 32 32 32 30 30 31 32 32 30 31 32 31 30 26 25 25 26 27 28 26 26 25 26 25
30 31 31 30 29 27 27 26 25 26 25 23 22 20 19 19 20 24 28 29 30 31 31 30 29 30 29 29 29 29 28 28 27 27 26 26 27 25 24 24 23 22 22
30 30 30 29 26 26 25 24 24 24 26 24 23 22 21 20 23 27 28 28 29 29 30 27 26 28 28 28 27 27 27 27 27 26 26 26 24 24 23 24 23 21 21
29 28 28 26 24 24 24 23 22 26 26 25 25 25 23 23 25 27 28 29 28 28 28 30 29 30 29 28 28 27 27 27 27 26 26 25 24 23 24 23 22 22 23
28 27 27 25 23 24 23 23 23 24 23 25 30 28 27 27 28 30 31 30 30 29 30 30 30 30 30 29 28 28 27 27 26 26 25 25 24 24 23 23 23 23 23
26 26 25 24 23 24 24 23 22 23 24 25 26 31 31 31 31 30 31 31 30 29 30 30 30 30 29 29 28 28 27 27 26 25 25 25 25 25 24 24 24 25 22
28 29 28 28 29 29 28 27 25 24 23 22 21 21 26 29 28 29 31 32 30 29 28 28 28 28 28 28 28 27 27 26 27 26 26 26 26 26 25 25 24 22 22
31 31 32 32 31 30 30 28 27 25 23 21 21 22 28 29 26 23 26 28 29 29 29 28 28 27 28 27 27 26 26 26 26 26 26 26 27 26 26 23 23 24 22
31 31 31 30 31 31 31 32 31 30 29 29 29 30 30 30 24 23 23 24 25 27 27 27 26 26 26 26 26 26 25 25 26 26 26 26 26 25 24 24 23 21 20
31 30 30 30 31 31 31 29 29 29 28 27 24 22 23 23 24 25 25 25 25 26 26 26 26 26 27 26 25 25 25 24 25 26 26 26 26 25 24 22 21 21 21
29 29 29 29 29 29 29 29 29 29 29 27 23 22 21 21 22 23 25 26 26 27 27 27 27 26 25 24 25 27 27 27 26 26 27 26 25 24 23 22 22 22 21
26 27 27 25 23 22 22 22 22 23 24 24 23 23 22 22 22 22 24 25 26 26 26 26 26 25 24 24 25 25 26 27 28 29 28 27 26 24 23 23 22 22 22
25 24 23 23 22 21 20 20 19 20 20 21 22 23 23 23 23 23 24 24 24 25 25 25 25 24 24 24 23 25 26 26 26 27 27 27 26 24 24 23 23 23 23
Wind_Speed
24 22 22 22 22 19 20 20 20 17 17 16 15 13 13 12 11 9 8 9 8 7 7 7 6 5 4 2 2 5 4 2 4 3 6 8 10 13 14 13 13 13 14
22 22 23 22 22 23 22 19 18 18 17 17 15 15 14 13 12 12 11 9 9 9 8 7 7 6 5 4 5 4 3 3 2 2 3 7 6 7 7 10 10 9 12
23 23 21 23 23 24 23 20 18 18 17 16 16 17 16 14 13 12 12 10 10 10 9 10 8 9 8 5 5 6 5 4 5 3 2 3 2 5 8 7 10 10 11
25 25 24 24 24 23 21 19 20 19 19 18 17 16 15 14 13 12 13 12 12 10 9 9 8 8 8 8 8 7 5 6 5 4 1 1 2 3 5 11 14 12 14
25 25 25 21 19 19 20 20 19 20 19 18 17 16 15 15 13 15 14 14 14 12 10 9 8 9 9 8 8 7 7 5 4 3 2 2 3 5 8 8 8 13 12
20 20 18 20 19 20 20 21 21 21 19 17 18 18 17 12 15 15 15 15 14 14 13 10 10 10 9 8 7 6 6 5 4 2 1 2 2 4 5 7 9 9 9
19 16 18 19 18 19 19 19 20 22 19 20 20 19 18 15 16 16 16 14 15 15 15 13 11 8 8 7 5 5 3 4 3 4 1 1 2 3 4 7 5 6 7
17 17 18 19 19 18 20 21 21 20 22 21 21 20 19 15 17 16 16 14 13 13 14 13 13 10 8 8 7 5 3 2 4 3 2 3 5 5 4 4 4 7 10
20 19 20 21 20 22 23 23 21 21 20 20 19 20 21 16 18 17 15 14 14 13 12 11 12 11 10 8 7 6 3 2 2 3 4 6 7 6 6 3 9 8 9
19 21 21 23 24 25 22 22 18 18 18 18 19 18 19 20 19 18 16 14 16 14 12 11 12 12 10 8 7 6 5 4 2 5 7 7 7 8 8 5 6 11 11
16 16 17 17 19 18 18 15 19 18 18 19 20 19 17 19 18 19 18 15 15 15 14 13 11 13 11 9 7 6 5 4 4 4 6 6 6 6 7 7 6 7 10
17 18 18 18 16 17 20 17 18 19 20 20 20 18 15 15 18 19 19 15 15 15 15 13 13 15 12 10 8 8 8 7 4 5 6 8 9 10 9 7 9 9 9
19 19 19 18 18 18 20 19 18 19 18 18 18 17 16 14 14 18 19 18 15 13 11 12 13 16 13 9 9 9 9 6 6 6 8 9 7 8 10 10 10 8 10
20 19 18 20 18 18 17 18 19 19 19 18 17 17 14 14 14 13 14 15 15 12 12 10 11 11 10 9 7 8 8 8 9 9 8 6 5 4 8 8 12 12 15
16 16 17 17 19 18 18 19 20 19 20 20 19 18 20 18 18 18 17 16 14 14 11 9 9 9 10 9 9 9 9 8 10 9 10 9 8 7 9 9 8 11 15
14 14 14 14 14 15 16 12 9 12 16 15 14 17 12 12 16 19 18 17 16 16 11 11 13 13 13 12 11 12 11 12 12 11 11 11 11 11 12 12 12 14 16
14 13 12 12 13 15 14 15 15 8 15 16 17 18 18 16 17 18 18 17 17 16 12 12 13 13 13 12 13 13 13 13 12 11 12 13 12 13 14 14 14 13 14
6 11 13 13 13 13 13 12 13 16 15 10 9 11 14 14 13 13 15 14 11 13 13 14 15 14 13 13 12 13 13 12 11 11 12 13 14 15 17 17 15 14 14
3 6 8 8 10 12 12 12 13 12 12 12 8 9 9 11 12 13 15 12 14 14 15 14 14 13 13 13 12 12 12 12 11 12 12 14 16 17 17 16 15 17 21
9 8 8 7 9 9 9 10 10 10 12 12 12 11 9 8 10 11 13 15 14 14 13 15 14 14 13 13 13 12 12 12 12 13 14 15 16 15 15 12 12 17 16
10 9 10 9 8 7 7 8 8 9 10 11 10 7 7 10 13 14 15 15 15 15 14 14 13 14 12 12 11 12 12 12 12 11 11 10 11 13 12 13 15 11 12
5 3 1 3 6 8 9 10 11 11 11 11 9 8 12 12 15 14 14 15 15 14 13 14 13 13 12 13 12 11 11 12 12 12 12 12 12 12 12 12 13 16 17
1 0 2 3 3 4 4 5 5 6 7 8 11 12 13 15 16 15 16 15 13 14 13 14 13 13 12 11 10 10 10 13 12 9 10 12 12 12 10 14 15 17 17
4 5 5 6 6 7 8 10 11 12 13 14 14 13 13 14 15 15 15 13 13 13 13 13 14 15 13 11 11 10 10 8 9 11 12 11 13 14 13 15 17 19 20
9 10 11 13 13 13 14 15 15 14 14 15 15 15 15 15 15 14 13 12 13 13 14 14 14 15 16 16 13 11 10 14 12 10 10 13 15 15 15 16 19 20 21
10 10 12 13 13 14 14 14 15 15 16 15 14 14 14 15 14 14 14 14 15 14 15 14 15 17 17 16 12 13 16 17 15 15 12 11 12 12 14 18 20 19 21
Wind_Direction
186 185 186 185 185 181 179 174 175 167 168 173 173 173 172 168 171 172 173 167 163 158 158 160 159 150 139 142 197 160 191 214 270 316 20 359 36 22 14 15 13 17 2
180 181 186 179 177 181 180 176 175 176 175 175 174 170 174 172 168 168 162 157 158 153 149 142 141 139 126 120 119 113 132 109 147 295 3 25 30 14 16 20 8 5 358
176 178 179 180 179 181 180 176 176 174 177 173 169 169 170 167 160 159 155 149 145 146 146 146 144 134 130 120 108 104 91 78 77 103 8 2 327 345 0 2 355 353 341
176 179 182 182 183 177 175 174 176 172 173 173 172 171 169 166 160 153 152 149 144 141 136 136 134 136 140 123 108 106 99 100 110 106 107 313 316 357 17 0 350 347 334
175 178 182 178 172 170 172 174 170 173 175 173 167 166 164 161 163 160 157 154 150 146 139 132 132 128 127 131 129 121 117 111 117 99 52 351 348 1 8 346 339 333 328
175 177 168 168 171 175 173 173 174 175 174 168 166 163 167 166 168 161 157 158 158 155 153 145 142 142 138 126 124 131 135 131 122 134 113 7 334 342 349 357 347 354 347
170 171 171 168 168 174 172 169 176 175 168 172 172 171 170 166 164 163 162 162 163 164 164 162 161 157 142 135 114 114 118 181 170 150 134 278 316 331 327 338 341 332 302
170 171 171 169 172 167 167 175 181 172 174 175 178 177 170 174 170 167 162 164 161 163 167 172 166 160 151 144 140 136 123 114 149 156 186 259 257 278 269 278 295 305 300
178 174 173 171 170 173 182 182 179 174 180 180 179 176 177 176 174 171 164 163 163 169 171 172 168 165 161 150 148 155 155 163 102 25 348 333 330 316 325 330 322 322 320
189 185 179 178 179 184 183 179 178 180 182 178 181 179 178 179 179 176 172 166 170 173 178 179 173 170 167 164 158 170 192 223 251 332 337 338 342 339 338 334 296 298 308
187 181 180 182 184 182 176 177 175 175 173 179 184 186 183 181 183 182 179 176 179 181 183 184 183 176 174 181 186 195 213 199 251 280 303 305 310 316 322 322 297 272 283
185 186 186 184 180 176 179 179 177 175 180 183 183 187 190 185 185 188 188 188 185 183 189 190 189 186 183 191 209 231 239 243 238 275 294 306 315 317 315 309 301 291 268
192 193 189 183 182 178 181 182 179 178 181 184 185 187 190 187 188 192 193 193 189 188 185 186 187 188 192 210 233 238 240 224 252 265 279 285 289 298 312 321 313 300 289
195 195 185 186 181 178 183 183 185 186 187 188 189 191 188 189 191 184 192 194 192 185 184 185 187 191 207 223 229 243 239 232 231 248 263 268 282 305 322 324 319 325 323
192 188 185 185 184 182 187 188 193 198 193 190 193 187 184 193 197 190 188 189 188 188 181 190 201 206 217 230 240 242 240 236 240 242 251 251 257 278 287 279 284 302 296
187 181 177 176 176 179 179 181 200 191 192 196 190 186 193 191 182 187 188 194 197 192 182 199 207 212 222 231 241 248 244 246 244 244 247 244 260 269 277 266 265 275 281
192 180 174 174 177 179 180 183 188 187 191 188 186 183 178 181 186 192 193 191 191 188 198 205 215 218 229 233 237 242 249 246 242 246 246 249 258 265 272 273 278 271 276
184 180 180 181 181 181 181 178 170 170 174 171 171 168 173 179 177 176 175 171 197 206 213 217 222 222 228 235 240 245 250 248 244 252 253 255 257 258 267 272 269 275 284
191 180 179 175 180 178 168 169 172 175 178 175 174 192 188 190 194 201 200 197 206 211 216 224 225 223 228 232 240 242 246 247 246 252 253 253 254 252 260 263 269 273 295
85 105 120 136 141 148 159 170 175 184 187 186 186 186 166 164 195 210 212 213 215 220 217 223 227 228 228 229 236 240 240 235 236 247 253 252 252 251 259 268 281 286 285
82 84 100 106 117 128 144 165 176 185 196 203 203 194 193 209 224 222 223 221 223 222 220 224 226 228 227 228 228 231 230 236 244 254 263 261 251 256 261 272 280 281 294
54 74 116 184 192 203 212 213 209 206 208 216 225 232 228 227 236 231 227 225 224 221 215 217 223 224 224 220 217 224 235 250 248 248 253 254 259 258 263 271 276 281 279
9 208 194 180 175 184 187 189 199 207 220 235 239 237 234 229 234 230 230 227 221 222 216 217 224 222 206 207 211 219 239 247 249 250 261 264 254 249 256 270 271 274 271
257 249 245 249 242 233 232 228 225 225 225 232 236 235 239 239 236 235 232 226 225 227 221 219 215 216 214 213 216 220 226 231 244 249 245 256 264 269 271 272 270 273 273
285 277 272 267 263 260 258 250 243 239 236 237 240 239 241 241 241 240 233 226 226 225 226 218 216 220 217 213 213 223 232 247 240 232 238 248 256 257 261 268 271 273 272
304 297 286 279 274 268 260 257 254 249 244 243 243 241 238 239 240 239 235 230 230 230 228 221 221 219 216 214 224 232 242 247 259 263 260 255 254 261 266 268 269 268 273